GW6385 Weather Reports


time (UTC)temp
C
wind
direction
speed
KPH
gust
KPH
rain 1hr
cm
rain 24hr
cm
rain mn
cm
humidity
%
barometer
mb
20260507145140 14 216 17.7 29.0 0.00 0.00 0.00 61 816.1
20260507144640 14 218 16.1 25.7 0.00 0.00 0.00 62 814.4
20260507144139 14 215 14.5 25.7 0.00 0.00 0.00 64 816.9
20260507143638 13 241 14.5 22.5 0.00 0.00 0.00 64 839.6
20260507143137 13 221 14.5 22.5 0.00 0.00 0.00 65 811.3
20260507142122 13 209 14.5 22.5 0.00 0.00 0.00 66 796.8
20260507141106 13 221 12.9 19.3 0.00 0.00 0.00 68 806.5
20260507140605 12 217 12.9 19.3 0.00 0.00 0.00 69 797.3
20260507140106 12 220 11.3 19.3 0.00 0.00 0.00 71 781.9
20260507135605 12 202 8.0 19.3 0.00 0.00 0.00 72 757.4
20260507135104 12 198 9.7 19.3 0.00 0.00 0.00 72 758.7
20260507134047 11 203 8.0 19.3 0.00 0.00 0.00 72 783.3
20260507133546 11 210 6.4 19.3 0.00 0.00 0.00 74 788.0
20260507132530 10 205 4.8 19.3 0.00 0.00 0.00 78 791.3
20260507132030 10 215 6.4 19.3 0.00 0.00 0.00 78 801.8
20260507131015 10 215 6.4 19.3 0.00 0.00 0.00 78 798.0
20260507130515 9 212 4.8 19.3 0.00 0.00 0.00 77 795.7
20260507130014 9 216 4.8 19.3 0.00 0.00 0.00 77 801.0
20260507125514 8 214 6.4 19.3 0.00 0.00 0.00 77 792.5
20260507125012 8 211 6.4 19.3 0.00 0.00 0.00 77 791.0
20260507123955 8 215 3.2 19.3 0.00 0.00 0.00 79 789.8
20260507123454 7 209 4.8 19.3 0.00 0.00 0.00 79 773.3
20260507122954 7 202 4.8 19.3 0.00 0.00 0.00 79 770.9
20260507122452 7 208 4.8 19.3 0.00 0.00 0.00 79 782.0
20260507121436 6 222 4.8 19.3 0.00 0.00 0.00 80 754.5
20260507120420 6 237 3.2 19.3 0.00 0.00 0.00 80 578.8
20260507115919 6 260 3.2 19.3 0.00 0.00 0.00 80 312.9
20260507115418 6 9 3.2 19.3 0.00 0.00 0.00 80 181.9
20260507114918 6 9 3.2 19.3 0.00 0.00 0.00 80 182.0
20260507114417 6 9 3.2 19.3 0.00 0.00 0.00 81 181.8
20260507113359 5 9 3.2 19.3 0.00 0.00 0.00 84 181.4
20260507112343 5 9 0.0 19.3 0.00 0.00 0.00 86 180.8
20260507111326 6 9 0.0 19.3 0.00 0.00 0.00 84 181.1
20260507110825 6 9 1.6 19.3 0.00 0.00 0.00 82 181.2
20260507110325 6 9 1.6 19.3 0.00 0.00 0.00 82 181.3
20260507105823 6 9 1.6 19.3 0.00 0.00 0.00 82 181.3
20260507105322 6 9 1.6 19.3 0.00 0.00 0.00 82 181.4
20260507104821 6 9 3.2 19.3 0.00 0.00 0.00 83 181.4
20260507104321 6 9 1.6 19.3 0.00 0.00 0.00 83 181.3
20260507103304 6 9 3.2 19.3 0.00 0.00 0.00 85 181.4
20260507102804 5 9 1.6 19.3 0.00 0.00 0.00 86 181.2
20260507102306 5 9 3.2 19.3 0.00 0.00 0.00 88 181.0
20260507101803 5 9 0.0 19.3 0.00 0.00 0.00 89 180.9
20260507101303 5 9 0.0 19.3 0.00 0.00 0.00 89 180.9
20260507100801 5 9 0.0 19.3 0.00 0.00 0.00 89 181.0
20260507100301 5 9 0.0 19.3 0.00 0.00 0.00 89 181.1
20260507095800 5 9 0.0 19.3 0.00 0.00 0.00 90 181.1
20260507095259 5 9 0.0 19.3 0.00 0.00 0.00 89 181.1
20260507094757 5 9 0.0 19.3 0.00 0.00 0.00 89 181.3
20260507093742 6 9 0.0 19.3 0.00 0.00 0.00 88 181.0
20260507093240 6 9 0.0 19.3 0.00 0.00 0.00 88 181.0
20260507092740 6 9 0.0 19.3 0.00 0.00 0.00 87 181.2
20260507091725 6 9 0.0 19.3 0.00 0.00 0.00 87 181.2
20260507091224 6 9 0.0 19.3 0.00 0.00 0.00 87 180.9
20260507090724 6 9 0.0 19.3 0.00 0.00 0.00 87 180.9
20260507085707 6 9 0.0 19.3 0.00 0.00 0.00 88 181.6
20260507084651 6 9 0.0 19.3 0.00 0.00 0.00 90 181.3
20260507084150 6 9 0.0 19.3 0.00 0.00 0.00 90 181.3
20260507083649 6 9 0.0 19.3 0.00 0.00 0.00 90 181.2
20260507083148 6 9 0.0 19.3 0.00 0.00 0.00 91 181.1
20260507082132 6 9 0.0 19.3 0.00 0.00 0.00 91 181.1
20260507081117 6 9 0.0 19.3 0.00 0.00 0.00 90 181.2
20260507080101 6 9 0.0 19.3 0.00 0.00 0.00 90 181.6
20260507075601 6 9 0.0 19.3 0.00 0.00 0.00 90 181.7
20260507075100 6 9 0.0 19.3 0.00 0.00 0.00 89 181.7
20260507074559 6 9 0.0 19.3 0.00 0.00 0.00 89 181.7
20260507074059 6 9 0.0 19.3 0.00 0.00 0.00 90 181.5
20260507073042 7 9 0.0 19.3 0.00 0.00 0.00 89 181.3
20260507072541 7 9 0.0 19.3 0.00 0.00 0.00 89 181.0
20260507072041 7 9 0.0 19.3 0.00 0.00 0.00 88 181.1
20260507071540 7 9 0.0 19.3 0.00 0.00 0.00 88 181.1
20260507071040 7 9 0.0 19.3 0.00 0.00 0.00 88 181.5
20260507070540 7 9 0.0 19.3 0.00 0.00 0.00 88 181.9
20260507070040 7 9 0.0 19.3 0.00 0.00 0.00 88 181.7
20260507065540 7 9 0.0 19.3 0.00 0.00 0.00 87 181.5
20260507065040 7 9 0.0 19.3 0.00 0.00 0.00 87 181.5
20260507064539 7 9 0.0 19.3 0.00 0.00 0.00 86 181.7
20260507064038 7 9 1.6 19.3 0.00 0.00 0.00 86 181.8
20260507063537 7 9 1.6 19.3 0.00 0.00 0.00 86 182.5
20260507063037 7 9 0.0 19.3 0.00 0.00 0.00 86 182.6
20260507062020 7 9 1.6 19.3 0.00 0.00 0.00 87 182.2
20260507061520 7 9 1.6 19.3 0.00 0.00 0.00 88 182.4
20260507061020 7 9 0.0 19.3 0.00 0.00 0.00 88 182.7
20260507060520 7 9 0.0 19.3 0.00 0.00 0.00 89 182.8
20260507060020 7 9 0.0 19.3 0.00 0.00 0.00 89 182.3
20260507055520 7 9 0.0 19.3 0.00 0.00 0.00 90 182.0
20260507055020 7 9 0.0 19.3 0.00 0.00 0.00 90 181.7
20260507054519 7 9 0.0 19.3 0.00 0.00 0.00 90 181.8
20260507054018 7 9 0.0 19.3 0.00 0.00 0.00 90 181.8
20260507053518 7 9 0.0 19.3 0.00 0.00 0.00 90 181.4
20260507053017 7 9 0.0 19.3 0.00 0.00 0.00 90 181.6
20260507052516 7 9 0.0 19.3 0.00 0.00 0.00 90 182.1
20260507051500 7 9 0.0 19.3 0.00 0.00 0.00 90 182.1
20260507050959 7 9 0.0 19.3 0.00 0.00 0.00 90 181.8
20260507050458 7 9 0.0 19.3 0.00 0.00 0.00 89 181.7
20260507045958 7 9 0.0 19.3 0.00 0.00 0.03 89 181.9
20260507045458 7 9 0.0 19.3 0.00 0.00 0.03 90 181.7
20260507044957 7 9 0.0 19.3 0.03 0.00 0.03 89 181.5
20260507044457 7 9 0.0 19.3 0.03 0.00 0.03 89 181.4
20260507043957 8 9 0.0 19.3 0.03 0.00 0.03 89 181.4
20260507043457 8 9 0.0 19.3 0.03 0.00 0.03 88 181.4
20260507042956 8 9 0.0 19.3 0.03 0.00 0.03 87 181.5
20260507042455 8 9 0.0 19.3 0.03 0.00 0.03 87 181.5
20260507041954 8 9 0.0 19.3 0.03 0.00 0.03 87 181.7
20260507041454 8 9 0.0 19.3 0.03 0.00 0.03 88 181.9
20260507040954 8 9 0.0 19.3 0.03 0.00 0.03 88 181.9
20260507040453 8 9 0.0 19.3 0.03 0.00 0.03 88 181.9
20260507035952 8 9 0.0 19.3 0.03 0.00 0.03 88 181.6
20260507035451 8 9 0.0 19.3 0.03 0.00 0.03 88 181.3
20260507033919 8 9 0.0 19.3 0.00 0.00 0.00 86 182.0
20260507033418 8 9 0.0 19.3 0.00 0.00 0.00 85 181.7
20260507032917 8 9 0.0 19.3 0.00 0.00 0.00 85 181.5
20260507032416 9 9 0.0 19.3 0.00 0.00 0.00 84 181.4
20260507031915 9 9 0.0 19.3 0.00 0.00 0.00 82 181.3
20260507031415 9 9 0.0 19.3 0.00 0.00 0.00 81 181.1
20260507030358 9 9 0.0 19.3 0.00 0.00 0.00 78 181.7
20260507025857 9 9 0.0 19.3 0.00 0.00 0.00 78 181.5
20260507025356 10 9 0.0 19.3 0.00 0.00 0.00 77 181.3
20260507024855 9 9 0.0 19.3 0.00 0.00 0.00 73 181.4
20260507023323 10 9 0.0 19.3 0.00 0.00 0.00 76 181.9
20260507022822 10 9 0.0 19.3 0.00 0.00 0.00 78 181.6
20260507022321 10 9 0.0 19.3 0.00 0.00 0.00 77 181.5
20260507021820 10 9 0.0 19.3 0.00 0.00 0.00 75 181.7
20260507020803 10 9 0.0 19.3 0.00 0.00 0.00 72 181.9
20260507020302 11 9 0.0 19.3 0.00 0.00 0.00 71 182.0
20260507015802 11 9 0.0 19.3 0.00 0.00 0.00 72 182.0
20260507015301 11 9 0.0 19.3 0.00 0.00 0.00 71 181.9
20260507014800 11 9 0.0 19.3 0.00 0.00 0.00 72 182.0
20260507014259 12 9 0.0 19.3 0.00 0.00 0.00 71 181.8
20260507013758 12 9 0.0 19.3 0.00 0.00 0.00 70 181.5
20260507013257 12 9 0.0 19.3 0.00 0.00 0.00 65 181.6
20260507012756 13 9 0.0 19.3 0.00 0.00 0.00 58 182.0
20260507012255 13 9 0.0 19.3 0.00 0.00 0.00 56 182.0
20260507011754 13 9 0.0 19.3 0.00 0.00 0.00 56 182.4
20260507011254 13 9 0.0 19.3 0.00 0.00 0.00 54 183.8
20260507010753 13 9 0.0 19.3 0.00 0.00 0.00 53 185.7
20260507005736 13 9 0.0 19.3 0.00 0.00 0.00 54 197.9
20260507004719 14 9 1.6 19.3 0.00 0.00 0.00 49 229.0
20260507004218 13 9 1.6 19.3 0.00 0.00 0.00 49 263.5
20260507003717 13 9 3.2 19.3 0.00 0.00 0.00 49 328.7
20260507003216 13 4 6.4 19.3 0.00 0.00 0.00 47 468.4
20260507002716 14 0 4.8 19.3 0.00 0.00 0.00 47 649.4
20260507002216 14 5 4.8 19.3 0.00 0.00 0.00 46 501.4
20260507001159 15 2 8.0 19.3 0.00 0.00 0.00 43 451.9
20260507000659 15 3 8.0 19.3 0.00 0.00 0.00 44 503.5
20260507000158 15 2 8.0 19.3 0.00 0.00 0.00 44 557.8
20260506235142 15 4 11.3 19.3 0.00 0.00 0.00 44 413.1
20260506234641 15 8 9.7 19.3 0.00 0.00 0.00 44 433.3
20260506233624 15 5 9.7 19.3 0.00 0.00 0.00 46 616.6
20260506233124 15 2 8.0 19.3 0.00 0.00 0.00 44 476.8
20260506232623 15 11 12.9 19.3 0.00 0.00 0.00 44 422.1
20260506232122 15 8 9.7 19.3 0.00 0.00 0.00 44 526.5
20260506231621 15 0 3.2 19.3 0.00 0.00 0.00 43 661.5
20260506231121 15 358 11.3 19.3 0.00 0.00 0.00 41 595.3
20260506230620 15 2 11.3 19.3 0.00 0.00 0.00 44 488.1
20260506225603 15 344 6.4 19.3 0.00 0.00 0.00 42 766.0
20260506225102 15 5 12.9 19.3 0.00 0.00 0.00 43 402.1
20260506224601 15 14 12.9 19.3 0.00 0.00 0.00 44 373.6
20260506224100 15 24 12.9 19.3 0.00 0.00 0.00 43 392.5
20260506223559 15 18 6.4 19.3 0.00 0.00 0.00 45 436.7
20260506223058 15 14 6.4 19.3 0.00 0.00 0.00 45 507.4
20260506222557 15 5 9.7 19.3 0.00 0.00 0.00 43 676.2
20260506222056 15 0 11.3 19.3 0.00 0.00 0.00 44 554.4
20260506221555 15 13 6.4 19.3 0.00 0.00 0.00 46 457.4
20260506221054 15 23 8.0 20.9 0.00 0.00 0.00 47 443.3
20260506220553 15 2 11.3 20.9 0.00 0.00 0.00 46 545.1
20260506220052 15 32 9.7 22.5 0.00 0.00 0.00 48 590.1
20260506215551 15 358 11.3 22.5 0.00 0.00 0.00 46 765.3
20260506215050 15 353 8.0 22.5 0.00 0.00 0.00 47 773.8
20260506214550 15 348 9.7 22.5 0.00 0.00 0.00 44 773.0
20260506214050 15 2 11.3 22.5 0.00 0.00 0.00 42 770.6
20260506213549 15 354 9.7 22.5 0.00 0.00 0.00 48 724.4
20260506211501 15 27 4.8 20.9 0.00 0.00 0.00 47 632.0
20260506211001 15 346 11.3 25.7 0.00 0.00 0.00 45 737.4
20260506210501 15 3 17.7 25.7 0.00 0.00 0.00 48 521.3
20260506210000 14 0 11.3 22.5 0.00 0.00 0.00 44 552.6
20260506205500 15 13 6.4 20.9 0.00 0.00 0.00 44 460.8
20260506204444 14 18 12.9 24.1 0.00 0.00 0.00 46 377.9
20260506203427 14 0 6.4 24.1 0.00 0.00 0.00 46 563.1
20260506202926 14 13 12.9 24.1 0.00 0.00 0.00 46 408.4
20260506202425 15 8 11.3 22.5 0.00 0.00 0.00 46 401.9
20260506201924 15 37 9.7 22.5 0.00 0.00 0.00 48 442.2
20260506201423 14 358 6.4 19.3 0.00 0.00 0.00 47 499.1
20260506200922 14 32 8.0 19.3 0.00 0.00 0.00 47 311.9
20260506200422 14 33 8.0 17.7 0.00 0.00 0.00 51 319.0
20260506194849 14 7 11.3 17.7 0.00 0.00 0.00 48 432.9
20260506194348 13 5 3.2 17.7 0.00 0.00 0.00 47 410.0
20260506193332 13 25 6.4 17.7 0.00 0.00 0.00 50 695.0
20260506192831 13 356 11.3 17.7 0.00 0.00 0.00 45 873.9
20260506192330 13 356 8.0 17.7 0.00 0.00 0.00 47 897.4
20260506191830 13 351 11.3 17.7 0.00 0.00 0.00 44 872.4
20260506191329 13 338 8.0 17.7 0.00 0.00 0.00 49 689.3
20260506190828 13 8 1.6 17.7 0.00 0.00 0.00 48 588.3
20260506190327 13 359 14.5 22.5 0.00 0.00 0.00 45 877.8
20260506185826 13 323 9.7 19.3 0.00 0.00 0.00 48 861.4
20260506185325 13 0 12.9 19.3 0.00 0.00 0.00 45 639.8
20260506184824 13 3 9.7 19.3 0.00 0.00 0.00 47 550.2
20260506184323 13 12 9.7 19.3 0.00 0.00 0.00 51 557.2
20260506183822 13 9 11.3 19.3 0.00 0.00 0.00 46 620.4
20260506182805 13 14 8.0 19.3 0.00 0.00 0.00 47 398.9
20260506182306 13 33 9.7 19.3 0.00 0.00 0.00 50 467.6
20260506181805 13 357 8.0 19.3 0.00 0.00 0.00 50 640.0
20260506181305 13 357 12.9 24.1 0.00 0.00 0.00 46 655.8
20260506180804 13 8 11.3 24.1 0.00 0.00 0.00 46 587.7
20260506180304 13 355 12.9 20.9 0.00 0.00 0.00 47 549.9
20260506175804 13 29 4.8 20.9 0.00 0.00 0.00 49 421.9
20260506175306 13 29 4.8 20.9 0.00 0.00 0.00 47 518.4
20260506174802 13 4 9.7 22.5 0.00 0.00 0.00 49 753.2
20260506174301 13 359 16.1 22.5 0.00 0.00 0.00 48 901.1
20260506173801 13 348 8.0 19.3 0.00 0.00 0.00 54 869.8
20260506172744 13 0 16.1 20.9 0.00 0.00 0.00 50 907.4
20260506171211 12 340 8.0 20.9 0.00 0.00 0.00 51 954.7
20260506170711 12 345 9.7 20.9 0.00 0.00 0.00 50 842.2
20260506170210 12 358 8.0 20.9 0.00 0.00 0.00 50 697.4
20260506165710 12 358 11.3 20.9 0.00 0.00 0.00 49 556.2
20260506165209 12 17 11.3 20.9 0.00 0.00 0.00 50 558.1
20260506164708 12 18 8.0 20.9 0.00 0.00 0.00 52 641.6
20260506164208 12 345 6.4 20.9 0.00 0.00 0.00 56 965.3
20260506163151 12 349 8.0 20.9 0.00 0.00 0.00 57 789.4
20260506162650 12 347 8.0 24.1 0.00 0.00 0.00 58 662.6
20260506162149 12 11 12.9 24.1 0.00 0.00 0.00 57 528.8
20260506161648 12 356 12.9 24.1 0.00 0.00 0.00 56 602.8
20260506161147 12 22 9.7 24.1 0.00 0.00 0.00 56 464.8
20260506160646 12 11 14.5 24.1 0.00 0.00 0.00 56 604.9
20260506160146 12 355 9.7 321.9 0.00 0.00 0.00 63 780.7
20260506155645 12 358 8.0 321.9 0.00 0.00 0.00 64 812.7
20260506155144 12 353 9.7 321.9 0.00 0.00 0.00 60 864.6
20260506154643 12 349 8.0 321.9 0.00 0.00 0.00 67 929.4
20260506154142 11 350 6.4 321.9 0.00 0.00 0.00 64 846.0
20260506153641 11 343 9.7 321.9 0.00 0.00 0.00 65 752.1
20260506153140 11 339 8.0 321.9 0.00 0.00 0.00 68 469.1